Location: Berkeley
(37.8716°N, 122.2727°W)
Time: 06:18:24
(UTC-07:00)

BlueWalker 3 - Pass Details

Date: 18 May 2026
Orbit: 447 x 457 km, 53.2° (Epoch: 5 June)

Event Time Altitude Azimuth Distance (km) Brightness Sun altitude
Rises 05:01:37 0° 323° (NW) 2,448 5.4 -10.2°
Reaches altitude 10° 05:04:18 10° 344° (NNW) 1,575 4.7 -9.7°
Maximum altitude 05:06:42 17° 27° (NNE) 1,209 4.8 -9.3°
Drops below altitude 10° 05:09:07 10° 70° (ENE) 1,574 5.9 -9.0°
Sets 05:11:48 0° 91° (E) 2,445 6.5 -8.5°
